EW0648 Weather Reports


time (UTC)temp
F
wind
direction
speed
knots
gust
knots
rain 1hr
in
rain 24hr
in
rain mn
in
humidity
%
barometer
mb
20200803142258 89 268 0.9 4.3 0.00 0.00 0.00 60 1013.3
20200803141759 89 85 0.0 0.9 0.00 0.00 0.00 63 1013.3
20200803141257 89 239 0.9 2.6 0.00 0.00 0.00 62 1013.2
20200803140758 90 338 1.7 5.2 0.00 0.00 0.00 61 1013.3
20200803140259 89 343 0.0 4.3 0.00 0.00 0.00 62 1013.2
20200803135258 89 282 0.0 0.9 0.00 0.00 0.00 64 1013.3
20200803134759 88 328 0.9 4.3 0.00 0.00 0.00 65 1013.2
20200803134258 88 312 0.9 1.7 0.00 0.00 0.00 65 1013.2
20200803133758 88 281 0.9 1.7 0.00 0.00 0.00 66 1013.2
20200803132258 88 340 0.9 1.7 0.00 0.00 0.00 69 1013.1
20200803131758 88 308 0.0 1.7 0.00 0.00 0.00 73 1013.2
20200803131258 88 309 0.9 0.9 0.00 0.00 0.00 71 1013.1
20200803130758 87 328 0.0 0.0 0.00 0.00 0.00 74 1013.1
20200803130259 87 325 0.0 0.9 0.00 0.00 0.00 73 1013.0
20200803124758 85 338 0.0 0.0 0.00 0.00 0.00 79 1012.9
20200803123759 84 338 0.0 0.0 0.00 0.00 0.00 82 1013.0
20200803123258 83 335 0.0 0.0 0.00 0.00 0.00 84 1012.9
20200803122800 83 336 0.0 0.0 0.00 0.00 0.00 84 1012.8
20200803122258 82 335 0.0 0.0 0.00 0.00 0.00 86 1012.7
20200803121259 80 335 0.0 0.0 0.00 0.00 0.00 89 1012.8
20200803120258 79 335 0.0 0.0 0.00 0.00 0.00 90 1012.7
20200803115759 78 335 0.0 0.0 0.00 0.00 0.00 91 1012.7
20200803114258 76 335 0.0 0.0 0.00 0.00 0.00 91 1012.5
20200803113300 76 335 0.0 0.0 0.00 0.00 0.00 91 1012.5
20200803112759 76 335 0.0 0.0 0.00 0.00 0.00 91 1012.5
20200803111759 76 336 0.0 0.0 0.00 0.00 0.00 91 1012.2
20200803111259 76 336 0.0 0.0 0.00 0.00 0.00 91 1012.2
20200803110758 76 336 0.0 0.0 0.00 0.00 0.00 91 1012.2
20200803110258 76 335 0.0 0.0 0.00 0.00 0.00 91 1012.1
20200803105800 76 335 0.0 0.0 0.00 0.00 0.00 91 1012.0
20200803105300 76 335 0.0 0.0 0.00 0.00 0.00 91 1012.0
20200803104800 76 335 0.0 0.0 0.00 0.00 0.00 90 1011.9
20200803104300 76 335 0.0 0.0 0.00 0.00 0.00 90 1011.9
20200803103259 76 336 0.0 0.0 0.00 0.00 0.00 90 1011.7
20200803102300 76 335 0.0 0.0 0.00 0.00 0.00 90 1011.7
20200803101758 77 335 0.0 0.0 0.00 0.00 0.00 90 1011.6
20200803101300 77 335 0.0 0.0 0.00 0.00 0.00 90 1011.5
20200803100259 77 335 0.0 0.0 0.00 0.00 0.00 90 1011.5
20200803095759 77 336 0.0 0.0 0.00 0.00 0.00 90 1011.5
20200803095258 77 335 0.0 0.0 0.00 0.00 0.00 90 1011.4
20200803094259 76 335 0.0 0.0 0.00 0.00 0.00 90 1011.4
20200803093759 77 336 0.0 0.0 0.00 0.00 0.00 90 1011.4
20200803093259 77 335 0.0 0.0 0.00 0.00 0.00 90 1011.3
20200803092259 77 336 0.0 0.0 0.00 0.00 0.00 89 1011.1
20200803091759 77 336 0.0 0.0 0.00 0.00 0.00 89 1011.1
20200803091259 77 336 0.0 0.0 0.00 0.00 0.00 89 1011.0
20200803090759 77 335 0.0 0.0 0.00 0.00 0.00 89 1011.0
20200803090259 77 336 0.0 0.0 0.00 0.00 0.00 89 1011.0
20200803085759 77 335 0.0 0.0 0.00 0.00 0.00 88 1011.0
20200803085259 78 335 0.0 0.0 0.00 0.00 0.00 88 1011.0
20200803083759 78 335 0.0 0.0 0.00 0.00 0.00 88 1011.0
20200803083259 78 335 0.0 0.0 0.00 0.00 0.00 87 1010.9
20200803082800 78 335 0.0 0.0 0.00 0.00 0.00 87 1010.9
20200803081758 78 335 0.0 0.0 0.00 0.00 0.00 88 1010.9
20200803080800 78 338 0.0 0.0 0.00 0.00 0.00 89 1011.1
20200803080300 78 342 0.0 0.0 0.00 0.00 0.00 89 1011.2
20200803075300 78 342 0.0 0.0 0.00 0.00 0.00 88 1011.1
20200803074300 79 342 0.0 0.0 0.00 0.00 0.00 88 1011.3
20200803073300 79 342 0.0 0.0 0.00 0.00 0.00 88 1011.2
20200803072759 79 342 0.0 0.0 0.00 0.00 0.00 88 1011.2
20200803072300 79 342 0.0 0.0 0.00 0.00 0.00 87 1011.3
20200803071800 79 342 0.0 0.0 0.00 0.00 0.00 87 1011.2
20200803071300 79 342 0.0 0.0 0.00 0.00 0.00 88 1011.3
20200803070800 79 342 0.0 0.0 0.00 0.00 0.00 87 1011.4
20200803070259 79 342 0.0 0.0 0.00 0.00 0.00 87 1011.5
20200803065759 79 342 0.0 0.0 0.00 0.00 0.00 87 1011.5
20200803065300 80 342 0.0 0.0 0.00 0.00 0.00 87 1011.5
20200803063259 80 342 0.0 0.0 0.00 0.00 0.00 86 1011.5
20200803062800 80 342 0.0 0.0 0.00 0.00 0.00 86 1011.6
20200803062300 80 341 0.0 0.0 0.00 0.00 0.00 86 1011.9
20200803061800 81 341 0.0 0.0 0.00 0.00 0.00 85 1012.0
20200803061259 81 341 0.0 0.0 0.00 0.00 0.00 85 1012.0
20200803060800 81 342 0.0 0.0 0.00 0.00 0.00 85 1011.9
20200803060259 81 341 0.0 0.0 0.00 0.00 0.00 85 1011.8
20200803055800 81 332 0.0 0.0 0.00 0.00 0.00 84 1011.6
20200803055300 80 332 0.0 0.0 0.00 0.00 0.00 85 1011.5
20200803054800 80 332 0.0 0.0 0.00 0.00 0.00 85 1011.7
20200803054301 80 332 0.0 0.0 0.00 0.00 0.00 85 1011.8
20200803053800 80 332 0.0 0.0 0.00 0.00 0.00 85 1011.8
20200803053300 80 319 0.0 0.0 0.00 0.00 0.00 85 1011.9
20200803052759 80 319 0.0 0.0 0.00 0.00 0.00 84 1011.9
20200803052300 80 319 0.0 0.0 0.00 0.00 0.00 84 1012.0
20200803051301 80 319 0.0 0.0 0.00 0.00 0.00 83 1011.8
20200803050259 80 319 0.0 0.0 0.00 0.00 0.00 83 1011.7
20200803045759 81 319 0.0 0.0 0.00 0.00 0.00 82 1011.7
20200803043300 80 319 0.0 0.0 0.00 0.00 0.00 83 1011.7
20200803042800 81 319 0.0 0.0 0.00 0.00 0.00 82 1011.8
20200803041800 81 319 0.0 0.0 0.00 0.00 0.00 82 1011.7
20200803041300 81 319 0.0 0.0 0.00 0.00 0.00 82 1011.6
20200803040824 81 319 0.0 0.0 0.00 0.00 0.00 82 1011.6
20200803040300 81 115 0.0 0.0 0.00 0.00 0.00 82 1011.7
20200803035759 81 115 0.0 0.0 0.00 0.00 0.00 82 1011.6
20200803034800 81 115 0.0 0.0 0.00 0.00 0.00 81 1011.6
20200803033300 81 115 0.0 0.0 0.00 0.00 0.00 80 1011.6
20200803032800 82 114 0.0 0.0 0.00 0.00 0.00 80 1011.7
20200803031800 82 114 0.0 0.0 0.00 0.00 0.00 80 1011.7
20200803031300 82 114 0.0 0.0 0.00 0.00 0.00 79 1011.7
20200803030800 83 115 0.0 0.0 0.00 0.00 0.00 79 1011.7
20200803030259 83 117 0.0 0.0 0.00 0.00 0.00 79 1011.7
20200803025800 83 116 0.0 0.9 0.00 0.00 0.00 79 1011.9
20200803025300 83 313 0.0 0.9 0.00 0.00 0.00 80 1012.0
20200803024800 83 248 0.0 0.0 0.00 0.00 0.00 80 1012.0
20200803023801 83 295 0.0 0.0 0.00 0.00 0.00 79 1011.8
20200803022300 83 295 0.0 0.9 0.00 0.00 0.00 78 1011.6
20200803021759 84 297 0.0 0.9 0.00 0.00 0.00 78 1011.5
20200803021300 84 259 0.0 0.9 0.00 0.00 0.00 78 1011.5
20200803020301 84 355 0.9 1.7 0.00 0.00 0.00 77 1011.4
20200803015301 84 296 0.0 0.9 0.00 0.00 0.00 77 1011.1
20200803014800 84 298 0.0 1.7 0.00 0.00 0.00 76 1011.1
20200803013802 85 228 0.0 0.9 0.00 0.00 0.00 76 1011.1
20200803013301 85 243 0.0 1.7 0.00 0.00 0.00 76 1011.0
20200803012301 85 259 0.0 0.0 0.00 0.00 0.00 76 1010.9
20200803011300 85 269 0.0 0.0 0.00 0.00 0.00 76 1010.8
20200803010800 85 273 0.0 0.0 0.00 0.00 0.00 76 1010.8
20200803010300 85 273 0.0 0.0 0.00 0.00 0.00 75 1010.6
20200803005800 85 273 0.0 0.0 0.00 0.00 0.00 75 1010.6
20200803004800 86 229 0.0 0.0 0.00 0.00 0.00 74 1010.6
20200803003800 86 243 0.0 0.9 0.00 0.00 0.00 75 1010.5
20200803002800 87 306 0.0 0.9 0.00 0.00 0.00 74 1010.3
20200803002300 87 258 0.0 0.9 0.00 0.00 0.00 74 1010.3
20200803001800 87 338 0.9 4.3 0.00 0.00 0.00 74 1010.2
20200803001300 87 295 0.0 2.6 0.00 0.00 0.00 74 1010.2
20200803000807 87 298 0.0 5.2 0.00 0.00 0.00 73 1010.0
20200803000300 87 341 0.0 4.3 0.00 0.00 0.00 74 1009.9
20200802235801 87 325 0.9 4.3 0.00 0.00 0.00 74 1009.9
20200802235301 87 349 0.9 4.3 0.00 0.00 0.00 75 1009.8
20200802234302 88 340 0.0 5.2 0.00 0.00 0.00 75 1009.7
20200802233801 88 324 1.7 5.2 0.00 0.00 0.00 75 1009.7
20200802233300 88 290 0.0 2.6 0.00 0.00 0.00 76 1009.7
20200802232801 88 327 2.6 6.1 0.00 0.00 0.00 74 1009.7
20200802232301 88 308 2.6 7.0 0.00 0.00 0.00 74 1009.8
20200802231800 88 343 1.7 6.1 0.00 0.00 0.00 74 1009.7
20200802231300 89 322 1.7 5.2 0.00 0.00 0.00 73 1009.7
20200802230802 89 37 0.0 1.7 0.00 0.00 0.00 72 1009.5
20200802230300 89 3 0.9 4.3 0.00 0.00 0.00 71 1009.7
20200802225800 89 292 0.0 5.2 0.00 0.00 0.00 71 1009.6
20200802224800 89 353 2.6 7.8 0.00 0.00 0.00 71 1009.7
20200802224300 89 35 0.0 4.3 0.00 0.00 0.00 70 1009.6
20200802223801 89 312 3.5 7.8 0.00 0.00 0.00 70 1009.7
20200802223301 89 280 3.5 8.7 0.00 0.00 0.00 70 1009.7
20200802222801 89 314 4.3 7.8 0.00 0.00 0.00 69 1009.7
20200802222300 89 318 4.3 11.3 0.00 0.00 0.00 71 1009.7
20200802220801 90 328 0.9 4.3 0.00 0.00 0.00 70 1009.6
20200802215800 90 333 0.9 5.2 0.00 0.00 0.00 71 1009.6
20200802215301 90 336 3.5 8.7 0.00 0.00 0.00 70 1009.5
20200802214802 91 330 3.5 8.7 0.00 0.00 0.00 69 1009.5
20200802213801 91 295 0.9 4.3 0.00 0.00 0.00 69 1009.6
20200802213301 90 326 2.6 6.1 0.00 0.00 0.00 68 1009.7
20200802212801 91 79 1.7 7.0 0.00 0.00 0.00 68 1009.8
20200802212300 91 94 0.0 0.9 0.00 0.00 0.00 69 1009.7
20200802210301 90 280 0.9 1.7 0.00 0.00 0.00 68 1009.9
20200802205300 91 3 1.7 6.1 0.00 0.00 0.00 66 1009.9
20200802204801 91 32 0.9 2.6 0.00 0.00 0.00 65 1009.9
20200802204302 91 174 1.7 5.2 0.00 0.00 0.00 64 1009.8
20200802203301 91 307 0.9 1.7 0.00 0.00 0.00 66 1009.9
20200802202802 91 124 0.0 1.7 0.00 0.00 0.00 67 1010.0
20200802201801 91 279 0.0 5.2 0.00 0.00 0.00 67 1010.2
20200802201301 91 165 0.9 2.6 0.00 0.00 0.00 69 1010.1
20200802200801 90 32 5.2 10.4 0.00 0.00 0.00 70 1010.0
20200802200300 90 320 2.6 10.4 0.00 0.00 0.00 75 1010.1
20200802195301 89 333 3.5 7.0 0.00 0.00 0.00 76 1010.3
20200802194801 88 313 6.1 11.3 0.00 0.00 0.00 77 1010.3
20200802194301 87 330 2.6 8.7 0.00 0.00 0.00 79 1010.3
20200802193801 87 311 7.8 13.0 0.00 0.00 0.00 77 1010.2
20200802193301 88 323 3.5 11.3 0.00 0.00 0.00 77 1010.3
20200802192302 90 333 5.2 13.0 0.00 0.00 0.00 74 1010.4
20200802191800 92 319 8.7 15.6 0.00 0.00 0.00 70 1010.5
20200802191301 91 302 5.2 10.4 0.00 0.00 0.00 68 1010.4
20200802190302 90 320 2.6 8.7 0.00 0.00 0.00 69 1010.6
20200802185802 89 316 1.7 8.7 0.00 0.00 0.00 70 1010.9
20200802185301 89 304 4.3 7.0 0.00 0.00 0.00 69 1010.9
20200802184801 89 351 0.9 6.1 0.00 0.00 0.00 70 1010.9
20200802184301 90 324 0.9 8.7 0.00 0.00 0.00 70 1011.0
20200802183801 90 308 0.9 7.8 0.00 0.00 0.00 72 1010.7
20200802183302 91 2 2.6 7.8 0.00 0.00 0.00 71 1011.0
20200802181802 90 324 3.5 11.3 0.00 0.00 0.00 72 1010.9
20200802181301 90 358 0.9 7.8 0.00 0.00 0.00 74 1011.0
20200802180802 90 57 0.9 4.3 0.00 0.00 0.00 73 1011.1
20200802175802 91 336 1.7 5.2 0.00 0.00 0.00 68 1011.3
20200802174301 91 13 1.7 13.9 0.00 0.00 0.00 69 1011.2
20200802173801 92 320 1.7 13.9 0.00 0.00 0.00 67 1011.2
20200802173301 91 333 1.7 7.0 0.00 0.00 0.00 68 1011.3
20200802172801 91 344 1.7 7.0 0.00 0.00 0.00 67 1011.2
20200802172301 91 328 5.2 13.0 0.00 0.00 0.00 67 1011.3
20200802171802 91 309 5.2 13.0 0.00 0.00 0.00 68 1011.2
20200802171302 91 323 2.6 11.3 0.00 0.00 0.00 69 1011.4
20200802170802 91 338 0.9 7.0 0.00 0.00 0.00 70 1011.4
20200802170301 91 317 5.2 13.0 0.00 0.00 0.00 68 1011.4
20200802165802 91 327 4.3 10.4 0.00 0.00 0.00 70 1011.4
20200802164801 90 338 6.1 13.0 0.00 0.00 0.00 71 1011.6
20200802164302 90 310 2.6 10.4 0.00 0.00 0.00 71 1011.6
20200802163802 90 319 4.3 13.9 0.00 0.00 0.00 70 1011.6
20200802163302 91 327 5.2 11.3 0.00 0.00 0.00 69 1011.6
20200802162802 91 357 2.6 7.0 0.00 0.00 0.00 71 1011.7
20200802162302 90 349 2.6 10.4 0.00 0.00 0.00 72 1011.7
20200802161801 90 309 2.6 11.3 0.00 0.00 0.00 72 1011.7
20200802160801 89 334 2.6 7.0 0.00 0.00 0.00 73 1011.9
20200802160301 89 345 2.6 13.0 0.00 0.00 0.00 75 1011.9
20200802155302 88 333 4.3 10.4 0.00 0.00 0.00 75 1012.0
20200802154801 88 311 3.5 10.4 0.00 0.00 0.00 76 1012.1
20200802153303 88 302 0.9 5.2 0.00 0.00 0.00 75 1012.2
20200802152802 89 338 1.7 7.8 0.00 0.00 0.00 74 1012.1
20200802152301 89 315 0.9 5.2 0.00 0.00 0.00 76 1012.2
20200802150801 89 345 0.0 0.9 0.00 0.00 0.00 77 1012.2
20200802145801 89 102 0.0 4.3 0.00 0.00 0.00 75 1012.2
20200802144802 89 13 0.0 5.2 0.00 0.00 0.00 76 1012.3
20200802144302 89 333 0.9 2.6 0.00 0.00 0.00 75 1012.3
20200802143802 89 112 0.0 2.6 0.00 0.00 0.00 75 1012.3
20200802143302 88 94 0.0 0.9 0.00 0.00 0.00 79 1012.3
20200802142802 87 325 0.9 4.3 0.00 0.00 0.00 78 1012.3